ARKTIKA-M 1 (47719 NORAD) Tracking and Keplerian Element Data
This shows tracking and keplerian element data for the satellite.
Feedback or suggestion? Click here.
Element | Value |
Catalog | 47719 |
Name | ARKTIKA-M 1 |
Epoch Orbit | 79 |
Epoch Day | 99.10926487 |
Epoch Year | 2021 |
RAAN | 289.5206 |
Inclination | 63.2915 |
Eccentricity | 0.7196663 |
Argument of Perigee | 270.1784 |
Mean Anonmoly | 220.9768 |
Mean Motion | 2.00625807 |
Decay Rate | -2.09E-06 |
L1 | 1 47719U 21016A 21099.10926487 -.00000209 00000-0 00000-0 0 9998 |
L2 | 2 47719 63.2915 289.5206 7196663 270.1784 220.9768 2.00625807 795 |
Live tracking and technical data element details for ARKTIKA-M 1 (NORAD 47719). ARKTIKA-M 1 can be tracked NOW for your location showing map with azimuth and elevation plus other details from your city location.
Track the satellite on the map from your city or location and see movement details for azimuth, elevation, latitude, longitude, range, height, and movement on the map or in text.
IsCatalogInMostPopularTable: catalog: 47719, numindb: 9
Update: records affected: 1
GetName: 47719 ARKTIKA-M 1
Hit Count: updated at: Sat, 10 Apr 2021 18:47:23 GMT